User: anonymous   Login
Location: Unspecified
(0.0000°N, 0.0000°E)
Time: 10:01:43
(UTC+00:00)
Language:

STARLINK-30311 - Orbit

View from above orbital plane
View from above orbital plane
View from above satellite
View from above satellite

Ground track
Ground track

The orbit is defined by the following mean orbital elements,

1 57637U          26145.01423198 +.00000000 +00000-0 +79253-4 0 00007
2 57637  43.0027  21.1348 0001314 273.2845  86.7856 15.27576433    08
Epoch (UTC): 25 May 2026 00:20:29
Eccentricity: 0.0001314
inclination: 43.0027°
perigee height: 482 km
apogee height: 484 km
right ascension of ascending node: 21.1348°
argument of perigee: 273.2845°
revolutions per day: 15.27576433
mean anomaly at epoch: 86.7856°

The dashed part of the orbit path shows where the satellite is in the earth's shadow,  

DLR